SCP
0 0 0 0 0 0 0 0 0 0 0 0 0 0 0 0 0 0 0 0 0 0 0 0 0 0 0 0 0 0 0 0 0 0 0 0 0 0 0 0 0 0 0
0 0 0 0 0 0 0 0 0 0 0 0 0 0 0 0 0 0 0 0 0 0 0 0 0 0 0 0 0 0 0 0 0 0 0 0 0 0 0 0 0 0 0
0 0 0 0 0 0 0 0 0 0 0 0 0 0 0 0 0 0 0 0 0 0 0 0 0 0 0 0 0 0 0 0 0 0 0 0 0 0 0 0 0 0 0
0 0 0 0 0 0 0 0 0 0 0 0 0 0 0 0 0 0 0 0 0 0 0 0 0 0 0 0 0 0 0 0 0 0 0 0 0 0 0 0 0 0 0
0 0 0 0 0 0 0 0 0 0 0 0 0 0 0 0 0 0 0 0 0 0 0 0 0 0 0 0 0 0 0 0 0 0 0 0 0 0 0 0 0 0 0
0 0 0 0 0 0 0 0 0 0 0 0 0 0 0 0 0 0 0 0 0 0 0 0 0 0 0 0 0 0 0 0 0 0 0 0 0 0 0 0 0 0 0
0 0 0 0 0 0 0 0 0 0 0 0 0 0 0 0 0 0 0 0 0 0 0 0 0 0 0 0 0 0 0 0 0 0 0 0 0 0 0 0 0 0 0
0 0 0 0 0 0 0 0 0 0 0 0 0 0 0 0 0 0 0 0 0 0 0 0 0 0 0 0 0 0 0 0 0 0 0 0 0 0 0 0 0 0 0
0 0 0 0 0 0 0 0 0 0 0 0 0 0 0 0 0 0 0 0 0 0 0 0 0 0 0 0 0 0 0 0 0 0 0 0 0 0 0 0 0 0 0
0 0 0 0 0 0 0 0 0 0 0 0 0 0 0 0 0 0 0 0 0 0 0 0 0 0 0 0 0 0 0 0 0 0 0 0 0 0 0 0 0 0 0
0 0 0 0 0 0 0 0 0 0 0 0 0 0 0 0 0 0 0 0 0 0 0 0 0 0 0 0 0 0 0 0 0 0 0 0 0 0 0 0 0 0 0
0 0 0 0 0 0 0 0 0 0 0 0 0 0 0 0 0 0 0 0 0 0 0 0 0 0 0 0 0 0 0 0 0 0 0 0 0 0 0 0 0 0 0
0 0 0 0 0 0 0 0 0 0 0 0 0 0 0 0 0 0 0 0 0 0 0 0 0 0 0 0 0 0 0 0 0 0 0 0 0 0 0 0 0 0 0
0 0 0 0 0 0 0 0 0 0 0 0 0 0 0 0 0 0 0 0 0 0 0 0 0 0 0 0 0 0 0 0 0 0 0 0 0 0 0 0 0 0 0
0 0 0 0 0 0 0 0 0 0 0 0 0 0 0 0 0 0 0 0 0 0 0 0 0 0 0 0 0 0 0 0 0 0 0 0 0 0 0 0 0 0 0
0 0 0 0 0 0 0 0 0 0 0 0 0 0 0 0 0 0 0 0 0 0 0 0 0 0 0 0 0 0 0 0 0 0 0 0 0 0 0 0 0 0 0
0 0 0 0 0 0 0 0 0 0 0 0 0 0 0 0 0 0 0 0 0 0 0 0 0 0 0 0 0 0 0 0 0 0 0 0 0 0 0 0 0 0 0
0 0 0 0 0 0 0 0 0 0 0 0 0 0 0 0 0 0 0 0 0 0 0 0 0 0 0 0 0 0 0 0 0 0 0 0 0 0 0 0 0 0 0
0 0 0 0 0 0 0 0 0 0 0 0 0 0 0 0 0 0 0 0 0 0 0 0 0 0 0 0 0 0 0 0 0 0 0 0 0 0 0 0 0 0 0
0 0 0 0 0 0 0 0 0 0 0 0 0 0 0 0 0 0 0 0 0 0 0 0 0 0 0 0 0 0 0 0 0 0 0 0 0 0 0 0 0 0 0
0 0 0 0 0 0 0 0 0 0 0 0 0 0 0 0 0 0 0 0 0 0 0 0 0 0 0 0 0 0 0 0 0 0 0 0 0 0 0 0 0 0 0
0 0 0 0 0 0 0 0 0 0 0 0 0 0 0 0 0 0 0 0 0 0 0 0 0 0 0 0 0 0 0 0 0 0 0 0 0 0 0 0 0 0 0
0 0 0 0 0 0 0 0 0 0 0 0 0 0 0 0 0 0 0 0 0 0 0 0 0 0 0 0 0 0 0 0 0 0 0 0 0 0 0 0 0 0 0
0 0 0 0 0 0 0 0 0 0 0 0 0 0 0 0 0 0 0 0 0 0 0 0 0 0 0 0 0 0 0 0 0 0 0 0 0 0 0 0 0 0 0
0 0 0 0 0 0 0 0 0 0 0 0 0 0 0 0 0 0 0 0 0 0 0 0 0 0 0 0 0 0 0 0 0 0 0 0 0 0 0 0 0 0 0
0 0 0 0 0 0 0 0 0 0 0 0 0 0 0 0 0 0 0 0 0 0 0 0 0 0 0 0 0 0 0 0 0 0 0 0 0 0 0 0 0 0 0
Wind_Speed_500mb
68 68 68 63 58 54 51 46 45 45 44 43 41 40 38 36 35 34 33 31 29 26 24 23 20 19 18 17 15 12 10 7 7 9 10 11 13 14 20 23 25 31 37
66 68 69 66 63 60 55 50 49 48 45 43 43 42 41 39 38 36 34 31 29 27 26 23 22 20 19 19 18 17 16 12 11 11 13 16 17 18 20 23 28 31 34
69 69 72 72 70 65 58 54 52 50 48 48 47 45 43 41 39 37 35 33 31 29 26 25 23 22 21 20 20 20 20 18 16 14 15 18 21 23 22 23 25 27 33
69 73 76 76 73 68 60 57 54 53 52 51 48 45 44 43 40 40 38 35 33 30 28 27 25 23 22 22 22 21 22 21 21 20 20 21 23 25 29 30 25 27 27
73 78 79 76 74 70 65 61 57 56 54 51 49 49 48 46 44 41 38 36 33 31 30 28 26 24 24 24 23 22 23 22 23 25 26 26 27 29 29 34 37 36 35
73 77 77 77 78 76 71 67 63 60 58 55 54 52 50 48 44 41 39 36 33 32 30 28 27 25 24 24 24 23 23 22 23 26 27 29 31 33 34 36 39 42 42
71 75 77 78 82 81 75 72 68 64 61 60 57 54 51 46 44 41 39 36 35 32 30 29 27 25 25 25 25 24 23 24 24 27 28 30 33 36 38 37 40 43 44
70 75 77 79 81 82 80 77 70 67 64 60 58 54 50 46 44 41 38 37 36 34 31 29 27 26 25 26 26 24 24 24 26 30 28 30 34 36 39 41 43 46 45
72 76 79 78 81 84 85 81 72 69 67 62 57 54 50 46 43 41 40 39 37 34 31 30 27 26 25 26 26 26 26 23 28 31 31 30 32 34 37 40 40 46 52
78 81 79 77 79 81 84 80 73 70 66 61 58 53 47 44 43 41 40 39 37 34 32 30 27 25 26 26 26 28 26 23 32 34 35 33 34 35 36 42 44 47 47
79 79 78 76 74 75 78 77 74 70 65 61 58 53 49 46 43 41 41 39 34 32 32 29 27 26 27 27 27 27 27 30 32 37 38 36 35 37 39 42 46 47 48
76 77 76 70 69 73 77 76 73 69 65 62 58 54 50 47 46 43 36 33 32 33 29 27 28 28 27 26 27 28 30 34 36 38 40 41 40 39 41 44 46 47 48
72 72 65 62 66 69 74 75 72 68 66 63 61 55 53 50 44 39 37 33 31 31 29 30 31 29 28 25 27 29 34 35 37 40 41 43 43 41 39 38 39 42 44
64 61 59 62 65 67 70 69 68 68 65 61 59 55 50 45 49 35 38 37 31 30 30 28 26 25 24 22 26 31 33 34 34 34 36 36 34 31 32 37 38 39 42
54 55 57 59 62 65 64 62 61 59 57 52 55 55 58 55 44 49 40 31 27 26 21 20 19 18 21 21 25 26 26 25 24 23 24 26 28 30 28 30 32 34 36
47 51 55 58 60 60 60 57 52 49 53 54 51 51 53 36 35 33 23 23 22 16 15 15 19 18 16 19 22 23 23 19 17 18 21 24 24 24 23 18 23 29 33
40 47 52 56 59 61 63 68 72 59 47 45 43 39 34 33 25 21 20 15 14 16 16 13 10 14 18 19 20 18 18 15 16 20 17 17 16 16 20 22 24 28 30
32 39 47 54 61 66 70 68 60 53 51 44 38 35 33 33 31 25 19 23 21 11 7 9 12 13 17 20 21 21 18 16 15 15 14 15 13 18 17 20 23 28 30
33 43 52 58 59 54 47 46 47 45 45 45 42 40 34 25 21 22 19 13 8 10 9 6 8 12 16 18 20 18 17 17 17 16 12 13 16 17 17 20 22 24 28
30 37 39 38 39 40 40 42 46 45 42 38 33 26 25 26 24 18 17 17 15 12 7 3 2 7 10 10 10 7 8 9 7 8 10 12 13 17 20 21 22 24 25
21 24 28 34 39 45 48 47 42 34 31 28 27 27 25 21 20 21 21 19 15 11 8 6 6 7 9 9 6 3 3 3 4 6 8 10 14 17 21 24 21 21 23
39 40 43 44 44 40 32 31 28 26 27 26 27 25 23 23 23 22 21 18 14 11 8 6 5 7 8 7 6 5 5 6 8 10 12 14 16 19 22 23 22 19 17
35 33 33 34 31 26 24 24 25 26 26 26 25 23 23 24 24 23 19 15 12 8 5 4 5 5 6 8 9 9 9 9 11 15 19 21 22 23 23 24 25 24 24
19 24 26 23 19 17 19 23 26 24 23 24 23 24 24 25 23 20 15 10 6 3 1 3 7 9 11 13 14 15 17 21 25 28 30 31 31 29 28 28 27 26 27
12 13 10 14 18 21 19 23 28 28 26 26 25 25 25 23 20 16 12 7 4 3 6 8 11 14 17 20 23 26 29 32 35 37 40 41 43 41 38 36 35 34 35
22 24 26 31 34 35 32 30 30 29 29 28 27 25 22 18 15 12 10 7 5 6 9 12 16 20 24 27 31 34 38 41 43 45 50 51 52 53 50 47 46 45 44
Wind_Direction_500mb
232 230 228 228 227 228 230 231 231 231 230 228 227 227 227 226 226 225 225 226 228 229 232 232 232 233 236 238 240 243 252 268 282 295 292 292 313 327 331 341 354 358 3
233 231 230 229 228 229 230 231 231 231 230 228 227 225 225 225 226 227 228 229 230 231 232 232 232 233 236 240 243 248 254 264 277 286 289 293 294 305 313 322 331 338 349
234 231 230 229 228 230 230 231 232 231 230 229 227 226 226 225 226 226 227 228 229 229 231 231 232 234 236 240 244 249 255 262 269 281 289 287 288 293 296 306 315 322 329
239 235 232 230 230 230 230 232 233 232 231 231 230 227 226 226 225 226 227 227 227 227 227 230 233 233 236 240 245 251 258 263 270 275 283 293 295 297 299 302 302 307 310
239 237 235 233 231 230 230 231 232 231 232 232 230 227 225 226 225 226 227 227 227 228 229 230 233 233 234 239 245 251 259 266 272 279 285 290 296 302 305 307 307 308 313
242 241 238 234 231 230 229 229 229 229 229 229 228 227 228 227 225 224 224 227 228 229 230 231 232 233 235 239 245 252 260 268 273 279 284 288 291 296 300 304 307 310 318
245 242 239 236 231 229 228 228 228 227 228 228 227 227 227 226 226 225 226 226 228 229 229 231 233 234 237 242 248 255 262 270 276 281 286 292 294 296 298 300 303 306 309
246 243 240 235 232 230 228 228 227 227 228 228 227 227 226 225 225 225 225 224 226 229 229 231 233 235 239 246 253 260 268 275 279 282 285 289 294 297 300 302 304 303 303
247 244 241 235 232 229 228 227 227 227 226 225 225 225 224 223 224 223 226 226 227 229 230 232 233 235 241 249 257 263 269 278 278 282 287 289 292 296 298 299 303 304 305
253 249 244 238 234 231 229 227 227 227 226 224 222 220 221 221 223 224 226 227 228 229 231 234 235 236 242 250 258 266 273 278 277 282 286 290 293 295 297 298 300 301 305
255 252 247 242 237 233 229 226 226 224 222 221 221 217 216 216 219 220 225 228 230 230 233 236 239 240 243 250 258 266 274 272 275 281 285 288 291 292 292 291 294 297 299
255 252 246 241 236 230 226 224 223 221 219 217 217 215 212 213 215 217 223 229 228 231 233 234 238 242 247 253 262 269 275 280 285 287 290 295 295 292 287 289 290 289 290
251 248 243 238 234 228 222 220 219 217 216 214 213 213 212 211 210 212 219 223 226 231 231 233 238 246 252 258 269 278 282 286 288 291 293 294 297 298 299 299 296 295 292
253 248 241 233 227 221 218 218 217 215 211 211 211 211 211 206 212 208 213 217 220 229 232 235 244 252 261 270 277 280 283 285 287 289 291 294 296 298 304 306 310 306 307
250 244 234 227 221 215 213 214 213 214 216 212 213 212 210 214 203 210 208 211 220 227 231 238 248 260 265 279 286 288 290 292 296 301 308 308 314 319 324 320 324 328 329
246 237 228 218 210 207 206 202 202 207 209 211 211 221 215 204 204 196 188 201 205 209 231 250 259 266 287 294 294 290 293 300 310 308 315 315 323 332 338 344 338 339 339
242 233 220 211 203 201 200 198 198 199 202 208 203 193 185 179 149 154 170 176 202 226 237 250 286 299 301 295 292 299 304 305 309 322 334 351 353 354 351 348 340 339 339
233 226 216 205 204 200 201 200 197 192 186 176 165 151 146 157 166 174 186 206 209 207 251 273 275 286 298 297 288 289 290 296 302 309 320 323 326 325 330 332 338 337 341
220 209 204 204 204 203 197 191 191 180 162 150 152 163 169 166 175 192 193 186 192 205 211 240 293 304 301 294 292 285 284 287 301 308 321 323 319 321 328 328 337 344 342
220 216 207 200 191 185 180 169 157 153 157 164 157 153 165 178 182 179 177 179 179 178 171 176 329 340 328 308 301 300 287 307 306 316 312 314 320 324 323 328 330 332 333
170 168 171 164 156 150 147 152 162 162 143 140 154 160 162 164 166 166 168 164 165 162 150 122 96 59 38 30 24 359 341 321 315 298 303 307 322 317 316 321 321 325 331
124 128 133 138 144 150 144 132 130 145 154 160 157 158 161 165 166 166 163 162 161 154 149 131 79 50 38 22 7 17 29 14 355 345 338 336 326 321 320 324 331 337 342
126 132 131 129 120 122 137 151 158 158 159 159 161 166 168 167 168 168 165 164 163 148 116 76 45 10 333 309 300 305 311 303 302 305 306 303 304 308 310 311 311 314 317
90 106 108 118 129 144 161 164 162 164 170 174 174 172 173 176 179 176 170 165 155 130 60 326 312 305 299 294 295 297 296 293 292 290 289 291 293 296 299 298 297 298 300
112 127 151 168 171 167 174 193 198 189 185 184 184 181 180 177 170 169 166 161 175 235 268 284 294 298 301 304 302 297 291 287 285 285 285 285 286 286 287 290 291 287 285
235 225 207 199 202 205 201 198 197 196 194 191 189 186 182 178 175 175 180 194 226 263 288 303 312 312 307 299 293 290 290 290 289 288 287 284 282 280 280 281 284 284 283
Wind_Speed_850mb
68 68 68 63 58 54 51 46 45 45 44 43 41 40 38 36 35 34 33 31 29 26 24 23 20 19 18 17 15 12 10 7 7 9 10 11 13 14 20 23 25 31 37
66 68 69 66 63 60 55 50 49 48 45 43 43 42 41 39 38 36 34 31 29 27 26 23 22 20 19 19 18 17 16 12 11 11 13 16 17 18 20 23 28 31 34
69 69 72 72 70 65 58 54 52 50 48 48 47 45 43 41 39 37 35 33 31 29 26 25 23 22 21 20 20 20 20 18 16 14 15 18 21 23 22 23 25 27 33
69 73 76 76 73 68 60 57 54 53 52 51 48 45 44 43 40 40 38 35 33 30 28 27 25 23 22 22 22 21 22 21 21 20 20 21 23 25 29 30 25 27 27
73 78 79 76 74 70 65 61 57 56 54 51 49 49 48 46 44 41 38 36 33 31 30 28 26 24 24 24 23 22 23 22 23 25 26 26 27 29 29 34 37 36 35
73 77 77 77 78 76 71 67 63 60 58 55 54 52 50 48 44 41 39 36 33 32 30 28 27 25 24 24 24 23 23 22 23 26 27 29 31 33 34 36 39 42 42
71 75 77 78 82 81 75 72 68 64 61 60 57 54 51 46 44 41 39 36 35 32 30 29 27 25 25 25 25 24 23 24 24 27 28 30 33 36 38 37 40 43 44
70 75 77 79 81 82 80 77 70 67 64 60 58 54 50 46 44 41 38 37 36 34 31 29 27 26 25 26 26 24 24 24 26 30 28 30 34 36 39 41 43 46 45
72 76 79 78 81 84 85 81 72 69 67 62 57 54 50 46 43 41 40 39 37 34 31 30 27 26 25 26 26 26 26 23 28 31 31 30 32 34 37 40 40 46 52
78 81 79 77 79 81 84 80 73 70 66 61 58 53 47 44 43 41 40 39 37 34 32 30 27 25 26 26 26 28 26 23 32 34 35 33 34 35 36 42 44 47 47
79 79 78 76 74 75 78 77 74 70 65 61 58 53 49 46 43 41 41 39 34 32 32 29 27 26 27 27 27 27 27 30 32 37 38 36 35 37 39 42 46 47 48
76 77 76 70 69 73 77 76 73 69 65 62 58 54 50 47 46 43 36 33 32 33 29 27 28 28 27 26 27 28 30 34 36 38 40 41 40 39 41 44 46 47 48
72 72 65 62 66 69 74 75 72 68 66 63 61 55 53 50 44 39 37 33 31 31 29 30 31 29 28 25 27 29 34 35 37 40 41 43 43 41 39 38 39 42 44
64 61 59 62 65 67 70 69 68 68 65 61 59 55 50 45 49 35 38 37 31 30 30 28 26 25 24 22 26 31 33 34 34 34 36 36 34 31 32 37 38 39 42
54 55 57 59 62 65 64 62 61 59 57 52 55 55 58 55 44 49 40 31 27 26 21 20 19 18 21 21 25 26 26 25 24 23 24 26 28 30 28 30 32 34 36
47 51 55 58 60 60 60 57 52 49 53 54 51 51 53 36 35 33 23 23 22 16 15 15 19 18 16 19 22 23 23 19 17 18 21 24 24 24 23 18 23 29 33
40 47 52 56 59 61 63 68 72 59 47 45 43 39 34 33 25 21 20 15 14 16 16 13 10 14 18 19 20 18 18 15 16 20 17 17 16 16 20 22 24 28 30
32 39 47 54 61 66 70 68 60 53 51 44 38 35 33 33 31 25 19 23 21 11 7 9 12 13 17 20 21 21 18 16 15 15 14 15 13 18 17 20 23 28 30
33 43 52 58 59 54 47 46 47 45 45 45 42 40 34 25 21 22 19 13 8 10 9 6 8 12 16 18 20 18 17 17 17 16 12 13 16 17 17 20 22 24 28
30 37 39 38 39 40 40 42 46 45 42 38 33 26 25 26 24 18 17 17 15 12 7 3 2 7 10 10 10 7 8 9 7 8 10 12 13 17 20 21 22 24 25
21 24 28 34 39 45 48 47 42 34 31 28 27 27 25 21 20 21 21 19 15 11 8 6 6 7 9 9 6 3 3 3 4 6 8 10 14 17 21 24 21 21 23
39 40 43 44 44 40 32 31 28 26 27 26 27 25 23 23 23 22 21 18 14 11 8 6 5 7 8 7 6 5 5 6 8 10 12 14 16 19 22 23 22 19 17
35 33 33 34 31 26 24 24 25 26 26 26 25 23 23 24 24 23 19 15 12 8 5 4 5 5 6 8 9 9 9 9 11 15 19 21 22 23 23 24 25 24 24
19 24 26 23 19 17 19 23 26 24 23 24 23 24 24 25 23 20 15 10 6 3 1 3 7 9 11 13 14 15 17 21 25 28 30 31 31 29 28 28 27 26 27
12 13 10 14 18 21 19 23 28 28 26 26 25 25 25 23 20 16 12 7 4 3 6 8 11 14 17 20 23 26 29 32 35 37 40 41 43 41 38 36 35 34 35
22 24 26 31 34 35 32 30 30 29 29 28 27 25 22 18 15 12 10 7 5 6 9 12 16 20 24 27 31 34 38 41 43 45 50 51 52 53 50 47 46 45 44
Wind_Direction_850mb
232 230 228 228 227 228 230 231 231 231 230 228 227 227 227 226 226 225 225 226 228 229 232 232 232 233 236 238 240 243 252 268 282 295 292 292 313 327 331 341 354 358 3
233 231 230 229 228 229 230 231 231 231 230 228 227 225 225 225 226 227 228 229 230 231 232 232 232 233 236 240 243 248 254 264 277 286 289 293 294 305 313 322 331 338 349
234 231 230 229 228 230 230 231 232 231 230 229 227 226 226 225 226 226 227 228 229 229 231 231 232 234 236 240 244 249 255 262 269 281 289 287 288 293 296 306 315 322 329
239 235 232 230 230 230 230 232 233 232 231 231 230 227 226 226 225 226 227 227 227 227 227 230 233 233 236 240 245 251 258 263 270 275 283 293 295 297 299 302 302 307 310
239 237 235 233 231 230 230 231 232 231 232 232 230 227 225 226 225 226 227 227 227 228 229 230 233 233 234 239 245 251 259 266 272 279 285 290 296 302 305 307 307 308 313
242 241 238 234 231 230 229 229 229 229 229 229 228 227 228 227 225 224 224 227 228 229 230 231 232 233 235 239 245 252 260 268 273 279 284 288 291 296 300 304 307 310 318
245 242 239 236 231 229 228 228 228 227 228 228 227 227 227 226 226 225 226 226 228 229 229 231 233 234 237 242 248 255 262 270 276 281 286 292 294 296 298 300 303 306 309
246 243 240 235 232 230 228 228 227 227 228 228 227 227 226 225 225 225 225 224 226 229 229 231 233 235 239 246 253 260 268 275 279 282 285 289 294 297 300 302 304 303 303
247 244 241 235 232 229 228 227 227 227 226 225 225 225 224 223 224 223 226 226 227 229 230 232 233 235 241 249 257 263 269 278 278 282 287 289 292 296 298 299 303 304 305
253 249 244 238 234 231 229 227 227 227 226 224 222 220 221 221 223 224 226 227 228 229 231 234 235 236 242 250 258 266 273 278 277 282 286 290 293 295 297 298 300 301 305
255 252 247 242 237 233 229 226 226 224 222 221 221 217 216 216 219 220 225 228 230 230 233 236 239 240 243 250 258 266 274 272 275 281 285 288 291 292 292 291 294 297 299
255 252 246 241 236 230 226 224 223 221 219 217 217 215 212 213 215 217 223 229 228 231 233 234 238 242 247 253 262 269 275 280 285 287 290 295 295 292 287 289 290 289 290
251 248 243 238 234 228 222 220 219 217 216 214 213 213 212 211 210 212 219 223 226 231 231 233 238 246 252 258 269 278 282 286 288 291 293 294 297 298 299 299 296 295 292
253 248 241 233 227 221 218 218 217 215 211 211 211 211 211 206 212 208 213 217 220 229 232 235 244 252 261 270 277 280 283 285 287 289 291 294 296 298 304 306 310 306 307
250 244 234 227 221 215 213 214 213 214 216 212 213 212 210 214 203 210 208 211 220 227 231 238 248 260 265 279 286 288 290 292 296 301 308 308 314 319 324 320 324 328 329
246 237 228 218 210 207 206 202 202 207 209 211 211 221 215 204 204 196 188 201 205 209 231 250 259 266 287 294 294 290 293 300 310 308 315 315 323 332 338 344 338 339 339
242 233 220 211 203 201 200 198 198 199 202 208 203 193 185 179 149 154 170 176 202 226 237 250 286 299 301 295 292 299 304 305 309 322 334 351 353 354 351 348 340 339 339
233 226 216 205 204 200 201 200 197 192 186 176 165 151 146 157 166 174 186 206 209 207 251 273 275 286 298 297 288 289 290 296 302 309 320 323 326 325 330 332 338 337 341
220 209 204 204 204 203 197 191 191 180 162 150 152 163 169 166 175 192 193 186 192 205 211 240 293 304 301 294 292 285 284 287 301 308 321 323 319 321 328 328 337 344 342
220 216 207 200 191 185 180 169 157 153 157 164 157 153 165 178 182 179 177 179 179 178 171 176 329 340 328 308 301 300 287 307 306 316 312 314 320 324 323 328 330 332 333
170 168 171 164 156 150 147 152 162 162 143 140 154 160 162 164 166 166 168 164 165 162 150 122 96 59 38 30 24 359 341 321 315 298 303 307 322 317 316 321 321 325 331
124 128 133 138 144 150 144 132 130 145 154 160 157 158 161 165 166 166 163 162 161 154 149 131 79 50 38 22 7 17 29 14 355 345 338 336 326 321 320 324 331 337 342
126 132 131 129 120 122 137 151 158 158 159 159 161 166 168 167 168 168 165 164 163 148 116 76 45 10 333 309 300 305 311 303 302 305 306 303 304 308 310 311 311 314 317
90 106 108 118 129 144 161 164 162 164 170 174 174 172 173 176 179 176 170 165 155 130 60 326 312 305 299 294 295 297 296 293 292 290 289 291 293 296 299 298 297 298 300
112 127 151 168 171 167 174 193 198 189 185 184 184 181 180 177 170 169 166 161 175 235 268 284 294 298 301 304 302 297 291 287 285 285 285 285 286 286 287 290 291 287 285
235 225 207 199 202 205 201 198 197 196 194 191 189 186 182 178 175 175 180 194 226 263 288 303 312 312 307 299 293 290 290 290 289 288 287 284 282 280 280 281 284 284 283